Weather History for Abilene Dyess, TX

Change the Weather History Date:

Thursday, February 27, 2014

  Actual Average Record
Temperature  
Mean Temperature 42 °F -  
Max Temperature 63 °F 59 °F 88 °F (2011)
Min Temperature 21 °F 38 °F 19 °F (2002)
Degree Days  
Heating Degree Days 23    
Moisture  
Dew Point 26 °F    
Average Humidity 51    
Maximum Humidity 70    
Minimum Humidity 31    
Precipitation  
Precipitation 0.00 in - - ()
Sea Level Pressure  
Sea Level Pressure 29.97 in    
Wind  
Wind Speed 8 mph (South)    
Max Wind Speed 28 mph    
Max Gust Speed 40 mph    
Visibility 10 miles    
Events      
Averages and records for this station are not official NWS values.
T = Trace of Precipitation, MM = Missing Value Source: NWS Daily Summary

Daily Weather History Graph

Daily Weather History Graph

Search for Another Location

Airport:

Trip Planner

Search our weather history database for the weather conditions in past years. The results will help you decide how hot, cold, wet, or windy it might be!

Date:

Astronomy

Feb. 27, 2014 Rise Set
Actual Time 7:09 AM CST 6:35 PM CST
Civil Twilight 6:44 AM CST 7:00 PM CST
Nautical Twilight 6:16 AM CST 7:28 PM CST
Astronomical Twilight 5:47 AM CST 7:57 PM CST
Moon 5:38 AM CST (2/27) 5:05 PM CST (2/27)
Length of Visible Light 12h 15m
Length of Day
11h 26m
Waning Crescent, 4% of the Moon is Illuminated
Feb 27
Waning Crescent
Mar 1
New
Mar 8
First Quarter
Mar 16
Full
Mar 23
Last Quarter

Hourly Weather History & Observations

Time (CST) Temp. Windchill Dew Point Humidity Pressure Visibility Wind Dir Wind Speed Gust Speed Precip Events Conditions
12:58 AM 23.0 °F 18.4 °F 13.6 °F 67% 30.19 in 10.0 mi South 3.5 mph - N/A   Clear
1:58 AM 26.6 °F 22.6 °F 13.5 °F 58% 30.17 in 10.0 mi South 3.5 mph - N/A   Clear
2:58 AM 22.1 °F 15.9 °F 11.5 °F 64% 30.17 in 10.0 mi South 4.6 mph - N/A   Clear
3:58 AM 23.0 °F 17.0 °F 13.1 °F 66% 30.14 in 10.0 mi South 4.6 mph - N/A   Clear
4:58 AM 24.3 °F 18.4 °F 14.0 °F 65% 30.13 in 10.0 mi South 4.6 mph - N/A   Clear
5:58 AM 23.5 °F 16.4 °F 13.8 °F 66% 30.13 in 10.0 mi South 5.8 mph - N/A   Clear
6:58 AM 21.9 °F - 13.6 °F 70% 30.14 in 10.0 mi South 2.3 mph - N/A   Clear
7:58 AM 27.9 °F - 17.4 °F 65% 30.14 in 10.0 mi NNW 1.2 mph - N/A   Clear
8:58 AM 35.2 °F - 17.8 °F 49% 30.14 in 10.0 mi NNE 1.2 mph - N/A   Clear
9:58 AM 45.3 °F 42.3 °F 20.5 °F 37% 30.11 in 10.0 mi ESE 5.8 mph - N/A   Clear
10:58 AM 51.1 °F - 21.9 °F 32% 30.07 in 10.0 mi SE 10.4 mph - N/A   Clear
11:58 AM 52.5 °F - 23.9 °F 33% 30.05 in 10.0 mi SSE 10.4 mph - N/A   Scattered Clouds
12:58 PM 55.2 °F - 27.9 °F 35% 29.99 in 10.0 mi South 11.5 mph - N/A   Mostly Cloudy
1:58 PM 57.4 °F - 28.8 °F 34% 29.93 in 10.0 mi South 15.0 mph 21.9 mph N/A   Partly Cloudy
2:58 PM 59.0 °F - 28.9 °F 32% 29.88 in 10.0 mi South 18.4 mph 24.2 mph N/A   Clear
3:58 PM 62.1 °F - 30.6 °F 31% 29.85 in 10.0 mi South 13.8 mph 20.7 mph N/A   Clear
4:58 PM 63.5 °F - 33.4 °F 33% 29.82 in 10.0 mi South 15.0 mph 23.0 mph N/A   Clear
5:58 PM 62.8 °F - 36.1 °F 37% 29.80 in 10.0 mi South 15.0 mph - N/A   Clear
6:58 PM 58.3 °F - 39.7 °F 50% 29.79 in 10.0 mi South 16.1 mph - N/A   Clear
7:58 PM 54.7 °F - 39.0 °F 56% 29.78 in 10.0 mi South 16.1 mph - N/A   Clear
8:58 PM 53.1 °F - 39.2 °F 59% 29.77 in 10.0 mi South 18.4 mph 24.2 mph N/A   Clear
9:58 PM 52.3 °F - 39.4 °F 61% 29.73 in 10.0 mi South 20.7 mph - N/A   Clear
10:58 PM 51.1 °F - 39.2 °F 64% 29.72 in 10.0 mi South 16.1 mph 24.2 mph N/A   Clear
11:58 PM 50.5 °F - 38.8 °F 64% 29.66 in 10.0 mi South 27.6 mph 40.3 mph N/A   Clear